Year,Month,Day,Hour,Minute,Value (Times are PST for temperature in C)
2017,08,19,00,00,16.10
2017,08,19,00,01,16.00
2017,08,19,00,02,16.00
2017,08,19,00,03,16.00
2017,08,19,00,04,15.90
2017,08,19,00,05,15.90
2017,08,19,00,06,15.90
2017,08,19,00,07,15.90
2017,08,19,00,08,15.90
2017,08,19,00,09,15.90
2017,08,19,00,10,15.80
2017,08,19,00,11,15.80
2017,08,19,00,12,15.80
2017,08,19,00,13,15.80
2017,08,19,00,14,15.80
2017,08,19,00,15,15.80
2017,08,19,00,16,15.80
2017,08,19,00,17,15.80
2017,08,19,00,18,15.80
2017,08,19,00,19,15.70
2017,08,19,00,20,15.70
2017,08,19,00,21,15.70
2017,08,19,00,22,15.70
2017,08,19,00,23,15.70
2017,08,19,00,24,15.70
2017,08,19,00,25,15.70
2017,08,19,00,26,15.70
2017,08,19,00,27,15.70
2017,08,19,00,28,15.60
2017,08,19,00,29,15.60
2017,08,19,00,30,15.60
2017,08,19,00,31,15.60
2017,08,19,00,32,15.60
2017,08,19,00,33,15.60
2017,08,19,00,34,15.60
2017,08,19,00,35,15.50
2017,08,19,00,36,15.50
2017,08,19,00,37,15.50
2017,08,19,00,38,15.50
2017,08,19,00,39,15.40
2017,08,19,00,40,15.40
2017,08,19,00,41,15.40
2017,08,19,00,42,15.40
2017,08,19,00,43,15.40
2017,08,19,00,44,15.40
2017,08,19,00,45,15.40
2017,08,19,00,46,15.30
2017,08,19,00,47,15.30
2017,08,19,00,48,15.30
2017,08,19,00,49,15.30
2017,08,19,00,50,15.30
2017,08,19,00,51,15.30
2017,08,19,00,52,15.30
2017,08,19,00,53,15.30
2017,08,19,00,54,15.30
2017,08,19,00,55,15.20
2017,08,19,00,56,15.20
2017,08,19,00,57,15.20
2017,08,19,00,58,15.20
2017,08,19,00,59,15.20
2017,08,19,01,00,15.20
2017,08,19,01,01,15.20
2017,08,19,01,02,15.20
2017,08,19,01,03,15.10
2017,08,19,01,04,15.10
2017,08,19,01,05,15.10
2017,08,19,01,06,15.10
2017,08,19,01,07,15.10
2017,08,19,01,08,15.10
2017,08,19,01,09,15.10
2017,08,19,01,10,15.00
2017,08,19,01,11,15.00
2017,08,19,01,12,15.00
2017,08,19,01,13,15.00
2017,08,19,01,14,14.90
2017,08,19,01,15,14.90
2017,08,19,01,16,14.90
2017,08,19,01,17,14.90
2017,08,19,01,18,14.90
2017,08,19,01,19,14.80
2017,08,19,01,20,14.80
2017,08,19,01,21,14.80
2017,08,19,01,22,14.80
2017,08,19,01,23,14.80
2017,08,19,01,24,14.80
2017,08,19,01,25,14.80
2017,08,19,01,26,14.80
2017,08,19,01,27,14.70
2017,08,19,01,28,14.70
2017,08,19,01,29,14.70
2017,08,19,01,30,14.70
2017,08,19,01,31,14.70
2017,08,19,01,32,14.70
2017,08,19,01,33,14.70
2017,08,19,01,34,14.70
2017,08,19,01,35,14.70
2017,08,19,01,36,14.60
2017,08,19,01,37,14.60
2017,08,19,01,38,14.60
2017,08,19,01,39,14.60
2017,08,19,01,40,14.60
2017,08,19,01,41,14.60
2017,08,19,01,42,14.60
2017,08,19,01,43,14.60
2017,08,19,01,44,14.60
2017,08,19,01,45,14.50
2017,08,19,01,46,14.50
2017,08,19,01,47,14.50
2017,08,19,01,48,14.50
2017,08,19,01,49,14.50
2017,08,19,01,50,14.50
2017,08,19,01,51,14.50
2017,08,19,01,52,14.50
2017,08,19,01,53,14.40
2017,08,19,01,54,14.40
2017,08,19,01,55,14.40
2017,08,19,01,56,14.40
2017,08,19,01,57,14.40
2017,08,19,01,58,14.40
2017,08,19,01,59,14.40
2017,08,19,02,00,14.40
2017,08,19,02,01,14.40
2017,08,19,02,02,14.40
2017,08,19,02,03,14.30
2017,08,19,02,04,14.30
2017,08,19,02,05,14.30
2017,08,19,02,06,14.30
2017,08,19,02,07,14.30
2017,08,19,02,08,14.30
2017,08,19,02,09,14.30
2017,08,19,02,10,14.30
2017,08,19,02,11,14.30
2017,08,19,02,12,14.30
2017,08,19,02,13,14.30
2017,08,19,02,14,14.30
2017,08,19,02,15,14.30
2017,08,19,02,16,14.30
2017,08,19,02,17,14.30
2017,08,19,02,18,14.30
2017,08,19,02,19,14.30
2017,08,19,02,20,14.30
2017,08,19,02,21,14.30
2017,08,19,02,22,14.30
2017,08,19,02,23,14.30
2017,08,19,02,24,14.30
2017,08,19,02,25,14.30
2017,08,19,02,26,14.30
2017,08,19,02,27,14.30
2017,08,19,02,28,14.30
2017,08,19,02,29,14.30
2017,08,19,02,30,14.30
2017,08,19,02,31,14.30
2017,08,19,02,32,14.30
2017,08,19,02,33,14.30
2017,08,19,02,34,14.30
2017,08,19,02,35,14.30
2017,08,19,02,36,14.30
2017,08,19,02,37,14.20
2017,08,19,02,38,14.20
2017,08,19,02,39,14.20
2017,08,19,02,40,14.20
2017,08,19,02,41,14.20
2017,08,19,02,42,14.20
2017,08,19,02,43,14.20
2017,08,19,02,44,14.20
2017,08,19,02,45,14.20
2017,08,19,02,46,14.20
2017,08,19,02,47,14.20
2017,08,19,02,48,14.20
2017,08,19,02,49,14.10
2017,08,19,02,50,14.10
2017,08,19,02,51,14.10
2017,08,19,02,52,14.10
2017,08,19,02,53,14.10
2017,08,19,02,54,14.10
2017,08,19,02,55,14.10
2017,08,19,02,56,14.10
2017,08,19,02,57,14.10
2017,08,19,02,58,14.00
2017,08,19,02,59,14.00
2017,08,19,03,00,14.00
2017,08,19,03,01,14.00
2017,08,19,03,02,14.00
2017,08,19,03,03,14.00
2017,08,19,03,04,13.90
2017,08,19,03,05,13.90
2017,08,19,03,06,13.90
2017,08,19,03,07,13.90
2017,08,19,03,08,13.90
2017,08,19,03,09,13.90
2017,08,19,03,10,13.90
2017,08,19,03,11,13.90
2017,08,19,03,12,13.90
2017,08,19,03,13,13.90
2017,08,19,03,14,13.80
2017,08,19,03,15,13.80
2017,08,19,03,16,13.80
2017,08,19,03,17,13.80
2017,08,19,03,18,13.80
2017,08,19,03,19,13.80
2017,08,19,03,20,13.80
2017,08,19,03,21,13.80
2017,08,19,03,22,13.80
2017,08,19,03,23,13.80
2017,08,19,03,24,13.80
2017,08,19,03,25,13.80
2017,08,19,03,26,13.80
2017,08,19,03,27,13.80
2017,08,19,03,28,13.80
2017,08,19,03,29,13.80
2017,08,19,03,30,13.80
2017,08,19,03,31,13.80
2017,08,19,03,32,13.80
2017,08,19,03,33,13.70
2017,08,19,03,34,13.70
2017,08,19,03,35,13.70
2017,08,19,03,36,13.70
2017,08,19,03,37,13.70
2017,08,19,03,38,13.70
2017,08,19,03,39,13.70
2017,08,19,03,40,13.70
2017,08,19,03,41,13.70
2017,08,19,03,42,13.70
2017,08,19,03,43,13.70
2017,08,19,03,44,13.70
2017,08,19,03,45,13.70
2017,08,19,03,46,13.70
2017,08,19,03,47,13.70
2017,08,19,03,48,13.70
2017,08,19,03,49,13.70
2017,08,19,03,50,13.70
2017,08,19,03,51,13.70
2017,08,19,03,52,13.60
2017,08,19,03,53,13.60
2017,08,19,03,54,13.60
2017,08,19,03,55,13.60
2017,08,19,03,56,13.60
2017,08,19,03,57,13.60
2017,08,19,03,58,13.60
2017,08,19,03,59,13.60
2017,08,19,04,00,13.60
2017,08,19,04,01,13.60
2017,08,19,04,02,13.60
2017,08,19,04,03,13.60
2017,08,19,04,04,13.60
2017,08,19,04,05,13.60
2017,08,19,04,06,13.60
2017,08,19,04,07,13.60
2017,08,19,04,08,13.60
2017,08,19,04,09,13.60
2017,08,19,04,10,13.60
2017,08,19,04,11,13.60
2017,08,19,04,12,13.60
2017,08,19,04,13,13.60
2017,08,19,04,14,13.60
2017,08,19,04,15,13.60
2017,08,19,04,16,13.60
2017,08,19,04,17,13.60
2017,08,19,04,18,13.60
2017,08,19,04,19,13.70
2017,08,19,04,20,13.70
2017,08,19,04,21,13.70
2017,08,19,04,22,13.70
2017,08,19,04,23,13.70
2017,08,19,04,24,13.70
2017,08,19,04,25,13.70
2017,08,19,04,26,13.70
2017,08,19,04,27,13.70
2017,08,19,04,28,13.70
2017,08,19,04,29,13.70
2017,08,19,04,30,13.70
2017,08,19,04,31,13.70
2017,08,19,04,32,13.70
2017,08,19,04,33,13.70
2017,08,19,04,34,13.70
2017,08,19,04,35,13.70
2017,08,19,04,36,13.70
2017,08,19,04,37,13.70
2017,08,19,04,38,13.80
2017,08,19,04,39,13.80
2017,08,19,04,40,13.80
2017,08,19,04,41,13.80
2017,08,19,04,42,13.80
2017,08,19,04,43,13.80
2017,08,19,04,44,13.80
2017,08,19,04,45,13.80
2017,08,19,04,46,13.80
2017,08,19,04,47,13.80
2017,08,19,04,48,13.80
2017,08,19,04,49,13.80
2017,08,19,04,50,13.80
2017,08,19,04,51,13.80
2017,08,19,04,52,13.80
2017,08,19,04,53,13.80
2017,08,19,04,54,13.80
2017,08,19,04,55,13.80
2017,08,19,04,56,13.80
2017,08,19,04,57,13.80
2017,08,19,04,58,13.80
2017,08,19,04,59,13.80
2017,08,19,05,00,13.80
2017,08,19,05,01,13.80
2017,08,19,05,02,13.80
2017,08,19,05,03,13.80
2017,08,19,05,04,13.80
2017,08,19,05,05,13.80
2017,08,19,05,06,13.80
2017,08,19,05,07,13.80
2017,08,19,05,08,13.80
2017,08,19,05,09,13.90
2017,08,19,05,10,13.80
2017,08,19,05,11,13.90
2017,08,19,05,12,13.90
2017,08,19,05,13,13.90
2017,08,19,05,14,13.90
2017,08,19,05,15,13.90
2017,08,19,05,16,13.90
2017,08,19,05,17,13.90
2017,08,19,05,18,13.90
2017,08,19,05,19,13.90
2017,08,19,05,20,13.90
2017,08,19,05,21,13.90
2017,08,19,05,22,13.90
2017,08,19,05,23,14.00
2017,08,19,05,24,14.00
2017,08,19,05,25,14.00
2017,08,19,05,26,14.00
2017,08,19,05,27,14.00
2017,08,19,05,28,14.00
2017,08,19,05,29,14.00
2017,08,19,05,30,14.00
2017,08,19,05,31,14.00
2017,08,19,05,32,14.00
2017,08,19,05,33,14.00
2017,08,19,05,34,14.00
2017,08,19,05,35,14.00
2017,08,19,05,36,14.00
2017,08,19,05,37,14.00
2017,08,19,05,38,14.10
2017,08,19,05,39,14.10
2017,08,19,05,40,14.10
2017,08,19,05,41,14.10
2017,08,19,05,42,14.10
2017,08,19,05,43,14.10
2017,08,19,05,44,14.10
2017,08,19,05,45,14.10
2017,08,19,05,46,14.10
2017,08,19,05,47,14.10
2017,08,19,05,48,14.10
2017,08,19,05,49,14.10
2017,08,19,05,50,14.10
2017,08,19,05,51,14.10
2017,08,19,05,52,14.10
2017,08,19,05,53,14.10
2017,08,19,05,54,14.10
2017,08,19,05,55,14.10
2017,08,19,05,56,14.10
2017,08,19,05,57,14.10
2017,08,19,05,58,14.10
2017,08,19,05,59,14.10
2017,08,19,06,00,14.10
2017,08,19,06,01,14.20
2017,08,19,06,02,14.20
2017,08,19,06,03,14.20
2017,08,19,06,04,14.20
2017,08,19,06,05,14.20
2017,08,19,06,06,14.20
2017,08,19,06,07,14.20
2017,08,19,06,08,14.20
2017,08,19,06,09,14.20
2017,08,19,06,10,14.20
2017,08,19,06,11,14.20
2017,08,19,06,12,14.20
2017,08,19,06,13,14.20
2017,08,19,06,14,14.20
2017,08,19,06,15,14.20
2017,08,19,06,16,14.30
2017,08,19,06,17,14.30
2017,08,19,06,18,14.30
2017,08,19,06,19,14.30
2017,08,19,06,20,14.30
2017,08,19,06,21,14.30
2017,08,19,06,22,14.30
2017,08,19,06,23,14.30
2017,08,19,06,24,14.30
2017,08,19,06,25,14.30
2017,08,19,06,26,14.30
2017,08,19,06,27,14.30
2017,08,19,06,28,14.40
2017,08,19,06,29,14.40
2017,08,19,06,30,14.40
2017,08,19,06,31,14.40
2017,08,19,06,32,14.40
2017,08,19,06,33,14.40
2017,08,19,06,34,14.40
2017,08,19,06,35,14.40
2017,08,19,06,36,14.40
2017,08,19,06,37,14.40
2017,08,19,06,38,14.40
2017,08,19,06,39,14.40
2017,08,19,06,40,14.40
2017,08,19,06,41,14.40
2017,08,19,06,42,14.40
2017,08,19,06,43,14.40
2017,08,19,06,44,14.40
2017,08,19,06,45,14.40
2017,08,19,06,46,14.40
2017,08,19,06,47,14.50
2017,08,19,06,48,14.40
2017,08,19,06,49,14.50
2017,08,19,06,50,14.50
2017,08,19,06,51,14.50
2017,08,19,06,52,14.50
2017,08,19,06,53,14.50
2017,08,19,06,54,14.50
2017,08,19,06,55,14.60
2017,08,19,06,56,14.60
2017,08,19,06,57,14.60
2017,08,19,06,58,14.60
2017,08,19,06,59,14.60
2017,08,19,07,00,14.60
2017,08,19,07,01,14.60
2017,08,19,07,02,14.60
2017,08,19,07,03,14.60
2017,08,19,07,04,14.60
2017,08,19,07,05,14.60
2017,08,19,07,06,14.60
2017,08,19,07,07,14.60
2017,08,19,07,08,14.60
2017,08,19,07,09,14.60
2017,08,19,07,10,14.60
2017,08,19,07,11,14.60
2017,08,19,07,12,14.70
2017,08,19,07,13,14.70
2017,08,19,07,14,14.70
2017,08,19,07,15,14.70
2017,08,19,07,16,14.70
2017,08,19,07,17,14.70
2017,08,19,07,18,14.70
2017,08,19,07,19,14.70
2017,08,19,07,20,14.80
2017,08,19,07,21,14.80
2017,08,19,07,22,14.80
2017,08,19,07,23,14.80
2017,08,19,07,24,14.80
2017,08,19,07,25,14.80
2017,08,19,07,26,14.80
2017,08,19,07,27,14.80
2017,08,19,07,28,14.80
2017,08,19,07,29,14.80
2017,08,19,07,30,14.90
2017,08,19,07,31,14.90
2017,08,19,07,32,14.90
2017,08,19,07,33,14.90
2017,08,19,07,34,14.90
2017,08,19,07,35,14.90
2017,08,19,07,36,14.90
2017,08,19,07,37,14.90
2017,08,19,07,38,14.90
2017,08,19,07,39,14.90
2017,08,19,07,40,15.00
2017,08,19,07,41,15.00
2017,08,19,07,42,15.00
2017,08,19,07,43,15.00
2017,08,19,07,44,15.00
2017,08,19,07,45,15.00
2017,08,19,07,46,15.00
2017,08,19,07,47,15.10
2017,08,19,07,48,15.10
2017,08,19,07,49,15.10
2017,08,19,07,50,15.10
2017,08,19,07,51,15.10
2017,08,19,07,52,15.10
2017,08,19,07,53,15.10
2017,08,19,07,54,15.10
2017,08,19,07,55,15.10
2017,08,19,07,56,15.10
2017,08,19,07,57,15.10
2017,08,19,07,58,15.10
2017,08,19,07,59,15.10
2017,08,19,08,00,15.10
2017,08,19,08,01,15.10
2017,08,19,08,02,15.20
2017,08,19,08,03,15.10
2017,08,19,08,04,15.20
2017,08,19,08,05,15.20
2017,08,19,08,06,15.20
2017,08,19,08,07,15.20
2017,08,19,08,08,15.20
2017,08,19,08,09,15.20
2017,08,19,08,10,15.20
2017,08,19,08,11,15.20
2017,08,19,08,12,15.20
2017,08,19,08,13,15.20
2017,08,19,08,14,15.20
2017,08,19,08,15,15.30
2017,08,19,08,16,15.30
2017,08,19,08,17,15.30
2017,08,19,08,18,15.30
2017,08,19,08,19,15.30
2017,08,19,08,20,15.30
2017,08,19,08,21,15.30
2017,08,19,08,22,15.30
2017,08,19,08,23,15.30
2017,08,19,08,24,15.40
2017,08,19,08,25,15.40
2017,08,19,08,26,15.40
2017,08,19,08,27,15.40
2017,08,19,08,28,15.40
2017,08,19,08,29,15.40
2017,08,19,08,30,15.40
2017,08,19,08,31,15.50
2017,08,19,08,32,15.50
2017,08,19,08,33,15.50
2017,08,19,08,34,15.50
2017,08,19,08,35,15.60
2017,08,19,08,36,15.60
2017,08,19,08,37,15.60
2017,08,19,08,38,15.60
2017,08,19,08,39,15.70
2017,08,19,08,40,15.70
2017,08,19,08,41,15.70
2017,08,19,08,42,15.70
2017,08,19,08,43,15.80
2017,08,19,08,44,15.80
2017,08,19,08,45,15.80
2017,08,19,08,46,15.90
2017,08,19,08,47,15.90
2017,08,19,08,48,15.90
2017,08,19,08,49,15.90
2017,08,19,08,50,16.00
2017,08,19,08,51,16.10
2017,08,19,08,52,16.10
2017,08,19,08,53,16.10
2017,08,19,08,54,16.20
2017,08,19,08,55,16.20
2017,08,19,08,56,16.20
2017,08,19,08,57,16.30
2017,08,19,08,58,16.30
2017,08,19,08,59,16.30
2017,08,19,09,00,16.30
2017,08,19,09,01,16.30
2017,08,19,09,02,16.40
2017,08,19,09,03,16.40
2017,08,19,09,04,16.40
2017,08,19,09,05,16.50
2017,08,19,09,06,16.50
2017,08,19,09,07,16.50
2017,08,19,09,08,16.60
2017,08,19,09,09,16.60
2017,08,19,09,10,16.60
2017,08,19,09,11,16.60
2017,08,19,09,12,16.70
2017,08,19,09,13,16.70
2017,08,19,09,14,16.70
2017,08,19,09,15,16.80
2017,08,19,09,16,16.80
2017,08,19,09,17,16.80
2017,08,19,09,18,16.80
2017,08,19,09,19,16.80
2017,08,19,09,20,16.80
2017,08,19,09,21,16.90
2017,08,19,09,22,16.90
2017,08,19,09,23,17.00
2017,08,19,09,24,17.00
2017,08,19,09,25,17.10
2017,08,19,09,26,17.10
2017,08,19,09,27,17.20
2017,08,19,09,28,17.20
2017,08,19,09,29,17.20
2017,08,19,09,30,17.20
2017,08,19,09,31,17.30
2017,08,19,09,32,17.30
2017,08,19,09,33,17.30
2017,08,19,09,34,17.30
2017,08,19,09,35,17.30
2017,08,19,09,36,17.30
2017,08,19,09,37,17.30
2017,08,19,09,38,17.30
2017,08,19,09,39,17.30
2017,08,19,09,40,17.30
2017,08,19,09,41,17.30
2017,08,19,09,42,17.30
2017,08,19,09,43,17.30
2017,08,19,09,44,17.30
2017,08,19,09,45,17.30
2017,08,19,09,46,17.30
2017,08,19,09,47,17.30
2017,08,19,09,48,17.40
2017,08,19,09,49,17.40
2017,08,19,09,50,17.40
2017,08,19,09,51,17.40
2017,08,19,09,52,17.50
2017,08,19,09,53,17.50
2017,08,19,09,54,17.50
2017,08,19,09,55,17.50
2017,08,19,09,56,17.60
2017,08,19,09,57,17.60
2017,08,19,09,58,17.60
2017,08,19,09,59,17.60
2017,08,19,10,00,17.70
2017,08,19,10,01,17.70
2017,08,19,10,02,17.80
2017,08,19,10,03,17.80
2017,08,19,10,04,17.90
2017,08,19,10,05,17.90
2017,08,19,10,06,18.00
2017,08,19,10,07,18.10
2017,08,19,10,08,18.10
2017,08,19,10,09,18.10
2017,08,19,10,10,18.20
2017,08,19,10,11,18.20
2017,08,19,10,12,18.10
2017,08,19,10,13,18.10
2017,08,19,10,14,18.10
2017,08,19,10,15,18.10
2017,08,19,10,16,18.10
2017,08,19,10,17,18.10
2017,08,19,10,18,18.10
2017,08,19,10,19,18.10
2017,08,19,10,20,18.20
2017,08,19,10,21,18.20
2017,08,19,10,22,18.10
2017,08,19,10,23,18.10
2017,08,19,10,24,18.10
2017,08,19,10,25,18.20
2017,08,19,10,26,18.20
2017,08,19,10,27,18.20
2017,08,19,10,28,18.20
2017,08,19,10,29,18.20
2017,08,19,10,30,18.30
2017,08,19,10,31,18.30
2017,08,19,10,32,18.30
2017,08,19,10,33,18.30
2017,08,19,10,34,18.40
2017,08,19,10,35,18.40
2017,08,19,10,36,18.50
2017,08,19,10,37,18.40
2017,08,19,10,38,18.40
2017,08,19,10,39,18.50
2017,08,19,10,40,18.50
2017,08,19,10,41,18.50
2017,08,19,10,42,18.50
2017,08,19,10,43,18.50
2017,08,19,10,44,18.50
2017,08,19,10,45,18.50
2017,08,19,10,46,18.50
2017,08,19,10,47,18.50
2017,08,19,10,48,18.50
2017,08,19,10,49,18.60
2017,08,19,10,50,18.60
2017,08,19,10,51,18.60
2017,08,19,10,52,18.60
2017,08,19,10,53,18.70
2017,08,19,10,54,18.70
2017,08,19,10,55,18.70
2017,08,19,10,56,18.80
2017,08,19,10,57,18.80
2017,08,19,10,58,18.80
2017,08,19,10,59,18.90
2017,08,19,11,00,18.90
2017,08,19,11,01,18.90
2017,08,19,11,02,19.00
2017,08,19,11,03,19.00
2017,08,19,11,04,19.10
2017,08,19,11,05,19.10
2017,08,19,11,06,19.20
2017,08,19,11,07,19.30
2017,08,19,11,08,19.40
2017,08,19,11,09,19.50
2017,08,19,11,10,19.50
2017,08,19,11,11,19.50
2017,08,19,11,12,19.50
2017,08,19,11,13,19.60
2017,08,19,11,14,19.70
2017,08,19,11,15,19.70
2017,08,19,11,16,19.70
2017,08,19,11,17,19.80
2017,08,19,11,18,19.80
2017,08,19,11,19,19.90
2017,08,19,11,20,20.00
2017,08,19,11,21,20.10
2017,08,19,11,22,20.20
2017,08,19,11,23,20.30
2017,08,19,11,24,20.30
2017,08,19,11,25,20.30
2017,08,19,11,26,20.40
2017,08,19,11,27,20.40
2017,08,19,11,28,20.40
2017,08,19,11,29,20.50
2017,08,19,11,30,20.60
2017,08,19,11,31,20.60
2017,08,19,11,32,20.60
2017,08,19,11,33,20.60
2017,08,19,11,34,20.70
2017,08,19,11,35,20.70
2017,08,19,11,36,20.80
2017,08,19,11,37,20.90
2017,08,19,11,38,20.90
2017,08,19,11,39,21.00
2017,08,19,11,40,21.00
2017,08,19,11,41,21.00
2017,08,19,11,42,21.00
2017,08,19,11,43,21.00
2017,08,19,11,44,20.90
2017,08,19,11,45,21.00
2017,08,19,11,46,21.00
2017,08,19,11,47,21.10
2017,08,19,11,48,21.10
2017,08,19,11,49,21.20
2017,08,19,11,50,21.20
2017,08,19,11,51,21.30
2017,08,19,11,52,21.30
2017,08,19,11,53,21.30
2017,08,19,11,54,21.40
2017,08,19,11,55,21.40
2017,08,19,11,56,21.50
2017,08,19,11,57,21.60
2017,08,19,11,58,21.70
2017,08,19,11,59,21.80
2017,08,19,12,00,21.90
2017,08,19,12,01,21.90
2017,08,19,12,02,22.00
2017,08,19,12,03,22.00
2017,08,19,12,04,22.10
2017,08,19,12,05,22.10
2017,08,19,12,06,22.20
2017,08,19,12,07,22.20
2017,08,19,12,08,22.20
2017,08,19,12,09,22.20
2017,08,19,12,10,22.20
2017,08,19,12,11,22.20
2017,08,19,12,12,22.20
2017,08,19,12,13,22.30
2017,08,19,12,14,22.30
2017,08,19,12,15,22.30
2017,08,19,12,16,22.40
2017,08,19,12,17,22.40
2017,08,19,12,18,22.50
2017,08,19,12,19,22.50
2017,08,19,12,20,22.50
2017,08,19,12,21,22.60
2017,08,19,12,22,22.60
2017,08,19,12,23,22.70
2017,08,19,12,24,22.60
2017,08,19,12,25,22.60
2017,08,19,12,26,22.60
2017,08,19,12,27,22.60
2017,08,19,12,28,22.60
2017,08,19,12,29,22.60
2017,08,19,12,30,22.60
2017,08,19,12,31,22.60
2017,08,19,12,32,22.70
2017,08,19,12,33,22.70
2017,08,19,12,34,22.70
2017,08,19,12,35,22.70
2017,08,19,12,36,22.70
2017,08,19,12,37,22.80
2017,08,19,12,38,22.80
2017,08,19,12,39,22.90
2017,08,19,12,40,22.90
2017,08,19,12,41,22.90
2017,08,19,12,42,22.90
2017,08,19,12,43,22.90
2017,08,19,12,44,22.90
2017,08,19,12,45,22.80
2017,08,19,12,46,22.80
2017,08,19,12,47,22.70
2017,08,19,12,48,22.60
2017,08,19,12,49,22.60
2017,08,19,12,50,22.60
2017,08,19,12,51,22.50
2017,08,19,12,52,22.40
2017,08,19,12,53,22.40
2017,08,19,12,54,22.30
2017,08,19,12,55,22.20
2017,08,19,12,56,22.20
2017,08,19,12,57,22.10
2017,08,19,12,58,22.10
2017,08,19,12,59,22.10
2017,08,19,13,00,22.10
2017,08,19,13,01,22.10
2017,08,19,13,02,22.20
2017,08,19,13,03,22.20
2017,08,19,13,04,22.30
2017,08,19,13,05,22.40
2017,08,19,13,06,22.40
2017,08,19,13,07,22.50
2017,08,19,13,08,22.60
2017,08,19,13,09,22.60
2017,08,19,13,10,22.70
2017,08,19,13,11,22.70
2017,08,19,13,12,22.70
2017,08,19,13,13,22.60
2017,08,19,13,14,22.60
2017,08,19,13,15,22.60
2017,08,19,13,16,22.60
2017,08,19,13,17,22.60
2017,08,19,13,18,22.50
2017,08,19,13,19,22.50
2017,08,19,13,20,22.40
2017,08,19,13,21,22.30
2017,08,19,13,22,22.30
2017,08,19,13,23,22.30
2017,08,19,13,24,22.30
2017,08,19,13,25,22.40
2017,08,19,13,26,22.50
2017,08,19,13,27,22.50
2017,08,19,13,28,22.60
2017,08,19,13,29,22.60
2017,08,19,13,30,22.60
2017,08,19,13,31,22.70
2017,08,19,13,32,22.70
2017,08,19,13,33,22.70
2017,08,19,13,34,22.70
2017,08,19,13,35,22.70
2017,08,19,13,36,22.60
2017,08,19,13,37,22.60
2017,08,19,13,38,22.60
2017,08,19,13,39,22.60
2017,08,19,13,40,22.50
2017,08,19,13,41,22.50
2017,08,19,13,42,22.50
2017,08,19,13,43,22.50
2017,08,19,13,44,22.50
2017,08,19,13,45,22.50
2017,08,19,13,46,22.50
2017,08,19,13,47,22.60
2017,08,19,13,48,22.70
2017,08,19,13,49,22.70
2017,08,19,13,50,22.60
2017,08,19,13,51,22.70
2017,08,19,13,52,22.70
2017,08,19,13,53,22.70
2017,08,19,13,54,22.70
2017,08,19,13,55,22.80
2017,08,19,13,56,22.80
2017,08,19,13,57,22.80
2017,08,19,13,58,22.90
2017,08,19,13,59,22.90
2017,08,19,14,00,23.00
2017,08,19,14,01,23.00
2017,08,19,14,02,23.10
2017,08,19,14,03,23.00
2017,08,19,14,04,23.00
2017,08,19,14,05,23.00
2017,08,19,14,06,23.00
2017,08,19,14,07,23.00
2017,08,19,14,08,23.10
2017,08,19,14,09,23.10
2017,08,19,14,10,23.10
2017,08,19,14,11,23.20
2017,08,19,14,12,23.20
2017,08,19,14,13,23.10
2017,08,19,14,14,23.00
2017,08,19,14,15,23.00
2017,08,19,14,16,23.00
2017,08,19,14,17,23.00
2017,08,19,14,18,23.10
2017,08,19,14,19,23.10
2017,08,19,14,20,23.10
2017,08,19,14,21,23.10
2017,08,19,14,22,23.10
2017,08,19,14,23,23.10
2017,08,19,14,24,23.10
2017,08,19,14,25,23.10
2017,08,19,14,26,23.10
2017,08,19,14,27,23.10
2017,08,19,14,28,23.10
2017,08,19,14,29,23.10
2017,08,19,14,30,23.10
2017,08,19,14,31,23.20
2017,08,19,14,32,23.10
2017,08,19,14,33,23.10
2017,08,19,14,34,23.00
2017,08,19,14,35,22.90
2017,08,19,14,36,22.80
2017,08,19,14,37,22.80
2017,08,19,14,38,22.80
2017,08,19,14,39,22.80
2017,08,19,14,40,22.80
2017,08,19,14,41,22.80
2017,08,19,14,42,22.80
2017,08,19,14,43,22.90
2017,08,19,14,44,23.00
2017,08,19,14,45,23.10
2017,08,19,14,46,23.20
2017,08,19,14,47,23.20
2017,08,19,14,48,23.20
2017,08,19,14,49,23.30
2017,08,19,14,50,23.40
2017,08,19,14,51,23.40
2017,08,19,14,52,23.50
2017,08,19,14,53,23.60
2017,08,19,14,54,23.60
2017,08,19,14,55,23.60
2017,08,19,14,56,23.60
2017,08,19,14,57,23.60
2017,08,19,14,58,23.70
2017,08,19,14,59,23.70
2017,08,19,15,00,23.60
2017,08,19,15,01,23.60
2017,08,19,15,02,23.60
2017,08,19,15,03,23.60
2017,08,19,15,04,23.60
2017,08,19,15,05,23.60
2017,08,19,15,06,23.60
2017,08,19,15,07,23.60
2017,08,19,15,08,23.50
2017,08,19,15,09,23.50
2017,08,19,15,10,23.40
2017,08,19,15,11,23.30
2017,08,19,15,12,23.30
2017,08,19,15,13,23.30
2017,08,19,15,14,23.30
2017,08,19,15,15,23.30
2017,08,19,15,16,23.40
2017,08,19,15,17,23.40
2017,08,19,15,18,23.50
2017,08,19,15,19,23.60
2017,08,19,15,20,23.60
2017,08,19,15,21,23.70
2017,08,19,15,22,23.70
2017,08,19,15,23,23.70
2017,08,19,15,24,23.80
2017,08,19,15,25,23.80
2017,08,19,15,26,23.80
2017,08,19,15,27,23.70
2017,08,19,15,28,23.60
2017,08,19,15,29,23.50
2017,08,19,15,30,23.50
2017,08,19,15,31,23.40
2017,08,19,15,32,23.30
2017,08,19,15,33,23.30
2017,08,19,15,34,23.20
2017,08,19,15,35,23.20
2017,08,19,15,36,23.20
2017,08,19,15,37,23.30
2017,08,19,15,38,23.30
2017,08,19,15,39,23.30
2017,08,19,15,40,23.40
2017,08,19,15,41,23.50
2017,08,19,15,42,23.60
2017,08,19,15,43,23.60
2017,08,19,15,44,23.60
2017,08,19,15,45,23.60
2017,08,19,15,46,23.60
2017,08,19,15,47,23.60
2017,08,19,15,48,23.60
2017,08,19,15,49,23.70
2017,08,19,15,50,23.70
2017,08,19,15,51,23.70
2017,08,19,15,52,23.80
2017,08,19,15,53,23.80
2017,08,19,15,54,23.80
2017,08,19,15,55,23.90
2017,08,19,15,56,23.90
2017,08,19,15,57,23.80
2017,08,19,15,58,23.80
2017,08,19,15,59,23.80
2017,08,19,16,00,23.80
2017,08,19,16,01,23.80
2017,08,19,16,02,23.80
2017,08,19,16,03,23.80
2017,08,19,16,04,23.80
2017,08,19,16,05,23.90
2017,08,19,16,06,23.90
2017,08,19,16,07,23.90
2017,08,19,16,08,23.90
2017,08,19,16,09,23.90
2017,08,19,16,10,23.80
2017,08,19,16,11,23.80
2017,08,19,16,12,23.70
2017,08,19,16,13,23.60
2017,08,19,16,14,23.60
2017,08,19,16,15,23.50
2017,08,19,16,16,23.40
2017,08,19,16,17,23.40
2017,08,19,16,18,23.30
2017,08,19,16,19,23.30
2017,08,19,16,20,23.30
2017,08,19,16,21,23.30
2017,08,19,16,22,23.40
2017,08,19,16,23,23.40
2017,08,19,16,24,23.40
2017,08,19,16,25,23.40
2017,08,19,16,26,23.40
2017,08,19,16,27,23.40
2017,08,19,16,28,23.40
2017,08,19,16,29,23.30
2017,08,19,16,30,23.30
2017,08,19,16,31,23.20
2017,08,19,16,32,23.20
2017,08,19,16,33,23.10
2017,08,19,16,34,23.10
2017,08,19,16,35,23.10
2017,08,19,16,36,23.20
2017,08,19,16,37,23.20
2017,08,19,16,38,23.20
2017,08,19,16,39,23.20
2017,08,19,16,40,23.30
2017,08,19,16,41,23.30
2017,08,19,16,42,23.40
2017,08,19,16,43,23.30
2017,08,19,16,44,23.30
2017,08,19,16,45,23.30
2017,08,19,16,46,23.30
2017,08,19,16,47,23.20
2017,08,19,16,48,23.20
2017,08,19,16,49,23.10
2017,08,19,16,50,23.10
2017,08,19,16,51,23.10
2017,08,19,16,52,23.10
2017,08,19,16,53,23.10
2017,08,19,16,54,23.10
2017,08,19,16,55,23.20
2017,08,19,16,56,23.20
2017,08,19,16,57,23.20
2017,08,19,16,58,23.20
2017,08,19,16,59,23.20
2017,08,19,17,00,23.10
2017,08,19,17,01,23.00
2017,08,19,17,02,23.00
2017,08,19,17,03,23.00
2017,08,19,17,04,23.00
2017,08,19,17,05,22.90
2017,08,19,17,06,22.90
2017,08,19,17,07,22.90
2017,08,19,17,08,22.90
2017,08,19,17,09,22.90
2017,08,19,17,10,22.90
2017,08,19,17,11,22.90
2017,08,19,17,12,22.90
2017,08,19,17,13,22.90
2017,08,19,17,14,22.90
2017,08,19,17,15,22.90
2017,08,19,17,16,22.90
2017,08,19,17,17,23.00
2017,08,19,17,18,23.00
2017,08,19,17,19,23.10